Location: Bottens
(46.6171°N, 6.6605°E)
Time: 15:18:47
(UTC+00:00)

NOSS 3-1 (C) - Pass Details

Date: 20 June 2021
Orbit: 724 x 1485 km, 63.4° (Epoch: 20 July)

Event Time Altitude Azimuth Distance (km) Brightness Sun altitude
Exits shadow 00:31:14 19° 244° (WSW) 1,857 4.6 -18.8°
Maximum altitude 00:35:07 55° 317° (NW) 1,052 3.8 -18.6°
Drops below altitude 10° 00:41:25 10° 35° (NE) 2,797 7.0 -18.4°
Sets 00:44:22 0° 40° (NE) 3,877 7.9 -18.2°
